TimeEST,TemperatureF,Dew PointF,Humidity,Sea Level PressureIn,VisibilityMPH,Wind Direction,Wind SpeedMPH,Gust SpeedMPH,PrecipitationIn,Events,Conditions,WindDirDegrees,DateUTC
12:25 AM,53.1,47.1,80,30.04,-9999.0,South,16.1,26.5,N/A,,Unknown,170,2012-11-13 05:25:00
1:25 AM,55.0,48.7,79,30.04,-9999.0,South,16.1,35.7,0.04,,Unknown,170,2012-11-13 06:25:00
2:25 AM,55.8,49.3,79,30.01,-9999.0,SSE,16.1,28.8,0.01,,Unknown,160,2012-11-13 07:25:00
3:25 AM,55.8,49.1,78,29.98,-9999.0,South,13.8,27.6,N/A,,Unknown,170,2012-11-13 08:25:00
4:25 AM,56.3,50.0,79,29.95,-9999.0,SSE,15.0,29.9,0.02,,Unknown,160,2012-11-13 09:25:00
5:25 AM,50.9,46.0,83,30.01,-9999.0,WSW,8.1,38.0,N/A,,Unknown,250,2012-11-13 10:25:00
6:28 AM,46.8,46.8,100,30.05,-9999.0,Variable,6.9,18.4,0.01,,Unknown,0,2012-11-13 11:28:00
7:25 AM,45.0,-9999,N/A,30.08,-9999.0,Variable,4.6,13.8,0.00,,Unknown,0,2012-11-13 12:25:00
8:25 AM,43.0,-9999,N/A,30.10,-9999.0,Variable,5.8,12.7,0.03,,Unknown,0,2012-11-13 13:25:00
9:25 AM,41.5,-9999,N/A,30.11,-9999.0,Variable,5.8,-,0.03,,Unknown,0,2012-11-13 14:25:00
10:25 AM,39.2,-9999,N/A,30.12,-9999.0,Variable,3.5,-,0.05,,Unknown,0,2012-11-13 15:25:00
11:25 AM,37.9,-9999,N/A,30.13,-9999.0,Variable,5.8,12.7,0.08,,Unknown,0,2012-11-13 16:25:00
12:26 PM,38.1,-9999,N/A,30.14,-9999.0,Variable,3.5,13.8,0.04,,Unknown,0,2012-11-13 17:26:00
1:25 PM,38.3,35.4,89,30.15,-9999.0,Variable,3.5,19.6,N/A,,Unknown,0,2012-11-13 18:25:00
2:25 PM,38.1,33.1,82,30.17,-9999.0,Variable,4.6,13.8,N/A,,Unknown,0,2012-11-13 19:25:00
3:26 PM,37.0,30.9,79,30.21,-9999.0,Variable,5.8,15.0,N/A,,Unknown,0,2012-11-13 20:26:00
4:25 PM,35.1,30.7,84,30.25,-9999.0,Variable,4.6,15.0,N/A,,Unknown,0,2012-11-13 21:25:00
5:25 PM,31.6,28.6,88,30.29,-9999.0,Calm,Calm,-,0.00,,Unknown,0,2012-11-13 22:25:00
6:27 PM,-9999,-9999,N/A,30.32,-9999.0,Calm,Calm,-,N/A,,Unknown,0,2012-11-13 23:27:00
7:25 PM,-9999,-9999,N/A,30.35,-9999.0,Calm,Calm,-,N/A,,Unknown,0,2012-11-14 00:25:00
8:25 PM,-9999,-9999,N/A,30.38,-9999.0,Calm,Calm,-,N/A,,Unknown,0,2012-11-14 01:25:00
9:25 PM,-9999,-9999,N/A,30.42,-9999.0,Calm,Calm,-,N/A,,Unknown,0,2012-11-14 02:25:00
10:25 PM,-9999,-9999,N/A,30.43,-9999.0,Calm,Calm,-,0.00,,Unknown,0,2012-11-14 03:25:00
11:25 PM,-9999,-9999,N/A,30.45,-9999.0,Calm,Calm,-,N/A,,Unknown,0,2012-11-14 04:25:00